Location: Unspecified
(58.9933°N, 5.6375°E)
Time: 04:25:07
(UTC+02:00)

Okean 3 - Visible Passes

Search period start: 02 September 2015 00:00
Search period end: 12 September 2015 00:00
Orbit: 581 x 604 km, 82.5° (Epoch: 01 September)

Date Brightness Start Highest point End Pass type
(mag) Time Alt. Az. Time Alt. Az. Time Alt. Az.
02 Sep 5.7 05:09:52 10° SE 05:13:29 27° E 05:17:10 10° NNE visible
03 Sep 5.2 05:18:26 10° SSE 05:22:21 36° E 05:26:21 10° NNE visible
04 Sep 4.6 05:27:07 10° S 05:31:16 48° E 05:35:29 10° NNE visible
05 Sep 6.5 04:02:00 10° ESE 04:03:39 12° E 04:05:29 10° NE visible
05 Sep 4.0 05:35:56 10° S 05:40:13 66° E 05:44:32 10° NNE visible
06 Sep 6.2 04:09:48 10° ESE 04:12:27 16° E 04:15:11 10° NE visible
06 Sep 3.6 05:44:51 10° S 05:49:11 88° ESE 05:53:34 10° NNE visible
07 Sep 5.9 04:18:01 10° SE 04:21:15 21° E 04:24:36 10° NE visible
07 Sep 3.5 05:53:53 10° SSW 05:58:13 69° WNW 06:02:33 10° N visible
08 Sep 5.4 04:26:25 10° SSE 04:30:07 28° E 04:33:51 10° NNE visible
08 Sep 3.8 06:03:01 10° SSW 06:07:15 51° WNW 06:11:31 10° N visible
09 Sep 4.9 04:35:01 10° SSE 04:38:59 37° E 04:43:01 10° NNE visible
10 Sep 4.3 04:43:42 10° S 04:47:53 51° E 04:52:08 10° NNE visible
11 Sep 6.3 03:18:22 10° ESE 03:20:15 13° E 03:22:17 10° NE visible
11 Sep 3.8 04:53:00 13° S 04:56:51 69° E 05:01:10 10° NNE visible
